QPF
0.04 0.03 0.03 0.07 0.13 0.11 0.07 0.05 0.04 0.04 0.03 0.04 0.05 0.05 0.05 0.04 0.04 0.04 0.03 0.04 0.05 0.05 0.07 0.08 0.08 0.09 0.09 0.09 0.08 0.09 0.11 0.09 0.07 0.05 0.05 0.05 0.04 0.03 0.03 0.04 0.04 0.05 0.06
0.04 0.04 0.03 0.08 0.11 0.09 0.06 0.04 0.03 0.03 0.03 0.02 0.03 0.03 0.03 0.03 0.02 0.02 0.03 0.03 0.04 0.04 0.06 0.08 0.09 0.10 0.11 0.10 0.08 0.07 0.09 0.11 0.11 0.07 0.06 0.06 0.07 0.05 0.04 0.04 0.05 0.06 0.05
0.03 0.02 0.02 0.03 0.04 0.05 0.05 0.05 0.05 0.03 0.03 0.03 0.04 0.04 0.03 0.02 0.02 0.02 0.02 0.02 0.03 0.05 0.06 0.07 0.08 0.08 0.09 0.11 0.10 0.09 0.10 0.13 0.15 0.10 0.07 0.07 0.07 0.06 0.07 0.06 0.06 0.06 0.05
0.02 0.02 0.03 0.02 0.02 0.02 0.02 0.03 0.04 0.03 0.03 0.02 0.02 0.03 0.04 0.03 0.03 0.02 0.02 0.02 0.02 0.03 0.05 0.07 0.08 0.09 0.09 0.10 0.12 0.12 0.11 0.12 0.17 0.15 0.12 0.11 0.09 0.08 0.07 0.07 0.07 0.07 0.06
0.02 0.02 0.02 0.02 0.01 0.02 0.02 0.02 0.02 0.03 0.04 0.04 0.04 0.05 0.04 0.03 0.03 0.02 0.02 0.03 0.02 0.03 0.05 0.07 0.10 0.10 0.10 0.10 0.14 0.15 0.14 0.12 0.14 0.16 0.13 0.10 0.09 0.09 0.08 0.07 0.07 0.08 0.07
0.02 0.02 0.01 0.01 0.01 0.01 0.02 0.02 0.02 0.06 0.11 0.11 0.09 0.07 0.06 0.05 0.04 0.04 0.03 0.03 0.03 0.05 0.07 0.09 0.09 0.09 0.12 0.12 0.13 0.15 0.16 0.16 0.12 0.12 0.11 0.10 0.09 0.07 0.07 0.06 0.06 0.06 0.06
0.03 0.02 0.01 0.01 0.01 0.02 0.02 0.02 0.02 0.03 0.11 0.14 0.13 0.10 0.07 0.05 0.04 0.04 0.05 0.05 0.04 0.05 0.06 0.08 0.08 0.06 0.07 0.11 0.12 0.14 0.17 0.18 0.16 0.12 0.10 0.10 0.09 0.07 0.05 0.05 0.06 0.05 0.05
0.03 0.04 0.03 0.03 0.04 0.03 0.02 0.02 0.03 0.02 0.03 0.05 0.07 0.08 0.07 0.05 0.03 0.04 0.05 0.04 0.04 0.05 0.05 0.05 0.05 0.06 0.05 0.05 0.07 0.11 0.14 0.15 0.17 0.17 0.15 0.12 0.08 0.07 0.06 0.06 0.06 0.05 0.05
0.06 0.07 0.06 0.05 0.05 0.03 0.04 0.05 0.05 0.04 0.03 0.04 0.04 0.05 0.05 0.04 0.04 0.04 0.04 0.03 0.03 0.03 0.02 0.02 0.04 0.06 0.08 0.07 0.06 0.07 0.10 0.12 0.14 0.18 0.21 0.14 0.08 0.06 0.05 0.05 0.06 0.06 0.05
0.05 0.04 0.05 0.06 0.05 0.04 0.05 0.05 0.04 0.04 0.04 0.05 0.04 0.04 0.05 0.04 0.05 0.04 0.03 0.03 0.03 0.03 0.02 0.02 0.02 0.05 0.07 0.08 0.06 0.07 0.06 0.07 0.09 0.12 0.17 0.18 0.12 0.08 0.08 0.07 0.07 0.07 0.07
0.04 0.04 0.05 0.06 0.06 0.06 0.06 0.07 0.07 0.06 0.05 0.05 0.04 0.04 0.03 0.04 0.04 0.05 0.04 0.02 0.02 0.02 0.03 0.03 0.04 0.06 0.06 0.07 0.07 0.09 0.08 0.06 0.07 0.07 0.09 0.15 0.15 0.10 0.08 0.07 0.07 0.07 0.07
0.04 0.03 0.04 0.05 0.06 0.06 0.08 0.15 0.10 0.07 0.05 0.05 0.05 0.04 0.04 0.04 0.04 0.04 0.04 0.03 0.02 0.02 0.03 0.04 0.05 0.08 0.07 0.05 0.06 0.08 0.09 0.09 0.08 0.06 0.07 0.12 0.16 0.12 0.08 0.06 0.05 0.05 0.07
0.04 0.05 0.05 0.04 0.04 0.05 0.08 0.11 0.08 0.07 0.07 0.07 0.07 0.06 0.05 0.04 0.03 0.04 0.04 0.04 0.02 0.02 0.02 0.03 0.04 0.04 0.04 0.04 0.06 0.06 0.06 0.07 0.07 0.05 0.07 0.12 0.12 0.09 0.06 0.06 0.07 0.06 0.05
0.04 0.03 0.03 0.02 0.03 0.05 0.08 0.08 0.07 0.08 0.09 0.09 0.07 0.06 0.05 0.04 0.04 0.03 0.04 0.04 0.04 0.03 0.02 0.02 0.03 0.03 0.04 0.04 0.06 0.07 0.04 0.05 0.07 0.06 0.07 0.10 0.10 0.08 0.06 0.05 0.06 0.05 0.04
0.03 0.02 0.02 0.03 0.04 0.05 0.08 0.09 0.09 0.08 0.08 0.08 0.07 0.06 0.05 0.05 0.04 0.02 0.02 0.03 0.03 0.03 0.03 0.02 0.03 0.05 0.05 0.05 0.10 0.08 0.06 0.05 0.07 0.07 0.06 0.06 0.07 0.07 0.06 0.05 0.04 0.04 0.04
0.02 0.01 0.02 0.03 0.04 0.06 0.08 0.08 0.08 0.09 0.07 0.05 0.05 0.05 0.04 0.04 0.04 0.03 0.02 0.02 0.02 0.02 0.02 0.03 0.03 0.05 0.06 0.08 0.15 0.10 0.09 0.09 0.08 0.08 0.08 0.05 0.04 0.06 0.05 0.03 0.03 0.03 0.03
0.01 0.02 0.02 0.03 0.04 0.04 0.05 0.05 0.06 0.07 0.05 0.04 0.03 0.03 0.03 0.04 0.04 0.03 0.03 0.03 0.03 0.03 0.03 0.04 0.04 0.05 0.09 0.09 0.12 0.11 0.10 0.07 0.07 0.07 0.07 0.05 0.03 0.03 0.04 0.03 0.02 0.01 0.01
0.03 0.03 0.04 0.05 0.07 0.07 0.06 0.05 0.04 0.03 0.03 0.04 0.03 0.02 0.02 0.03 0.03 0.03 0.03 0.04 0.04 0.05 0.05 0.06 0.06 0.07 0.08 0.09 0.11 0.10 0.11 0.08 0.07 0.08 0.08 0.07 0.04 0.02 0.02 0.03 0.02 0.01 0.01
0.04 0.03 0.03 0.03 0.04 0.05 0.04 0.04 0.03 0.02 0.02 0.03 0.03 0.02 0.02 0.02 0.02 0.03 0.03 0.04 0.05 0.06 0.07 0.06 0.06 0.07 0.07 0.08 0.10 0.09 0.10 0.11 0.08 0.07 0.08 0.07 0.05 0.03 0.02 0.04 0.04 0.02 0.01
0.03 0.03 0.03 0.04 0.05 0.05 0.04 0.04 0.03 0.02 0.02 0.02 0.03 0.04 0.03 0.02 0.01 0.02 0.03 0.04 0.05 0.06 0.06 0.05 0.07 0.08 0.07 0.08 0.10 0.10 0.09 0.11 0.08 0.06 0.07 0.07 0.06 0.04 0.03 0.03 0.04 0.04 0.03
0.04 0.02 0.02 0.04 0.06 0.05 0.05 0.06 0.05 0.03 0.02 0.02 0.03 0.03 0.03 0.02 0.02 0.02 0.02 0.03 0.04 0.04 0.04 0.05 0.06 0.06 0.06 0.05 0.08 0.11 0.09 0.10 0.07 0.05 0.05 0.05 0.05 0.04 0.03 0.03 0.03 0.05 0.06
0.04 0.03 0.04 0.05 0.06 0.05 0.05 0.04 0.03 0.02 0.02 0.01 0.01 0.01 0.02 0.02 0.02 0.02 0.02 0.03 0.03 0.03 0.03 0.04 0.04 0.04 0.05 0.05 0.05 0.09 0.09 0.07 0.08 0.05 0.04 0.04 0.03 0.03 0.01 0.01 0.01 0.02 0.05
0.02 0.02 0.03 0.04 0.05 0.05 0.04 0.03 0.02 0.02 0.01 0.01 0.01 0.01 0.01 0.01 0.01 0.01 0.01 0.02 0.02 0.03 0.03 0.03 0.04 0.05 0.05 0.05 0.04 0.06 0.08 0.06 0.06 0.04 0.02 0.02 0.02 0.02 0.02 0.01 0.02 0.02 0.03
0.02 0.02 0.03 0.04 0.05 0.05 0.04 0.02 0.02 0.02 0.02 0.02 0.02 0.02 0.01 0.01 0.01 0.02 0.02 0.01 0.01 0.02 0.03 0.03 0.04 0.05 0.06 0.06 0.04 0.04 0.07 0.07 0.06 0.03 0.02 0.02 0.02 0.02 0.02 0.01 0.02 0.02 0.02
0.03 0.03 0.03 0.03 0.03 0.04 0.04 0.03 0.03 0.02 0.02 0.03 0.03 0.02 0.02 0.01 0.02 0.02 0.01 0.01 0.02 0.02 0.03 0.03 0.03 0.04 0.04 0.04 0.03 0.03 0.05 0.07 0.05 0.04 0.01 0.01 0.01 0.01 0.01 0.02 0.02 0.01 0.01
0.03 0.02 0.02 0.02 0.02 0.03 0.03 0.03 0.02 0.02 0.02 0.02 0.02 0.02 0.02 0.02 0.02 0.02 0.01 0.02 0.02 0.03 0.02 0.02 0.01 0.01 0.01 0.02 0.02 0.02 0.04 0.06 0.04 0.03 0.02 0.01 0.01 0.01 0.01 0.02 0.02 0.01 0.01
MSLP
1002.84 1003.24 1003.53 1003.69 1003.73 1003.69 1003.62 1003.57 1003.58 1003.67 1003.82 1004.04 1004.30 1004.58 1004.86 1005.15 1005.45 1005.76 1006.11 1006.48 1006.88 1007.29 1007.69 1008.06 1008.40 1008.68 1008.92 1009.12 1009.32 1009.51 1009.74 1010.00 1010.31 1010.66 1011.05 1011.45 1011.85 1012.24 1012.59 1012.90 1013.18 1013.42 1013.65
1003.68 1003.90 1004.00 1003.98 1003.84 1003.64 1003.43 1003.25 1003.15 1003.16 1003.26 1003.45 1003.70 1003.99 1004.29 1004.61 1004.93 1005.27 1005.62 1006.01 1006.42 1006.83 1007.24 1007.61 1007.93 1008.19 1008.39 1008.53 1008.65 1008.76 1008.91 1009.12 1009.40 1009.75 1010.18 1010.65 1011.13 1011.59 1012.02 1012.38 1012.68 1012.93 1013.15
1004.40 1004.48 1004.44 1004.28 1004.01 1003.69 1003.35 1003.06 1002.86 1002.78 1002.82 1002.97 1003.21 1003.51 1003.84 1004.18 1004.53 1004.88 1005.25 1005.63 1006.02 1006.42 1006.80 1007.14 1007.42 1007.62 1007.75 1007.82 1007.85 1007.88 1007.95 1008.10 1008.36 1008.72 1009.19 1009.74 1010.31 1010.88 1011.40 1011.85 1012.20 1012.49 1012.71
1004.97 1004.95 1004.83 1004.59 1004.26 1003.85 1003.43 1003.04 1002.75 1002.58 1002.56 1002.67 1002.89 1003.19 1003.54 1003.91 1004.28 1004.65 1005.01 1005.37 1005.72 1006.07 1006.39 1006.66 1006.87 1007.00 1007.05 1007.03 1006.97 1006.91 1006.91 1007.01 1007.24 1007.62 1008.14 1008.76 1009.44 1010.12 1010.75 1011.29 1011.72 1012.05 1012.30
1005.41 1005.35 1005.21 1004.95 1004.59 1004.15 1003.68 1003.23 1002.86 1002.62 1002.53 1002.59 1002.79 1003.09 1003.45 1003.84 1004.22 1004.59 1004.93 1005.24 1005.54 1005.81 1006.04 1006.23 1006.35 1006.39 1006.35 1006.24 1006.10 1005.96 1005.89 1005.93 1006.14 1006.53 1007.08 1007.77 1008.54 1009.32 1010.06 1010.69 1011.20 1011.58 1011.86
1005.78 1005.72 1005.59 1005.36 1005.02 1004.59 1004.10 1003.61 1003.19 1002.89 1002.74 1002.76 1002.93 1003.21 1003.58 1003.97 1004.35 1004.70 1005.00 1005.26 1005.48 1005.66 1005.79 1005.88 1005.91 1005.86 1005.74 1005.55 1005.33 1005.12 1004.99 1004.98 1005.16 1005.54 1006.11 1006.83 1007.66 1008.52 1009.34 1010.05 1010.62 1011.05 1011.34
1006.14 1006.11 1006.02 1005.84 1005.54 1005.14 1004.66 1004.16 1003.71 1003.36 1003.17 1003.14 1003.28 1003.55 1003.91 1004.29 1004.65 1004.97 1005.23 1005.42 1005.55 1005.63 1005.67 1005.66 1005.60 1005.47 1005.28 1005.03 1004.75 1004.49 1004.30 1004.25 1004.38 1004.73 1005.28 1006.01 1006.86 1007.75 1008.60 1009.35 1009.96 1010.41 1010.71
1006.56 1006.55 1006.50 1006.37 1006.13 1005.77 1005.32 1004.83 1004.37 1003.99 1003.77 1003.71 1003.82 1004.07 1004.40 1004.76 1005.09 1005.37 1005.56 1005.67 1005.72 1005.71 1005.66 1005.57 1005.44 1005.26 1005.02 1004.74 1004.43 1004.13 1003.89 1003.79 1003.86 1004.15 1004.65 1005.34 1006.15 1007.02 1007.86 1008.61 1009.22 1009.66 1009.96
1007.06 1007.05 1007.03 1006.94 1006.74 1006.43 1006.02 1005.55 1005.10 1004.72 1004.48 1004.40 1004.49 1004.70 1005.00 1005.32 1005.61 1005.82 1005.95 1005.99 1005.95 1005.87 1005.75 1005.61 1005.44 1005.23 1004.98 1004.68 1004.35 1004.03 1003.76 1003.60 1003.61 1003.82 1004.23 1004.83 1005.56 1006.36 1007.15 1007.85 1008.41 1008.82 1009.09
1007.63 1007.61 1007.59 1007.52 1007.35 1007.08 1006.70 1006.27 1005.84 1005.48 1005.23 1005.14 1005.20 1005.38 1005.63 1005.90 1006.13 1006.28 1006.33 1006.30 1006.20 1006.06 1005.90 1005.73 1005.55 1005.34 1005.10 1004.82 1004.49 1004.16 1003.86 1003.65 1003.59 1003.70 1004.01 1004.49 1005.11 1005.79 1006.48 1007.09 1007.58 1007.93 1008.15
1008.25 1008.20 1008.16 1008.08 1007.93 1007.68 1007.34 1006.95 1006.55 1006.21 1005.98 1005.87 1005.91 1006.04 1006.24 1006.44 1006.60 1006.68 1006.67 1006.58 1006.43 1006.25 1006.08 1005.90 1005.74 1005.56 1005.34 1005.09 1004.78 1004.45 1004.13 1003.87 1003.73 1003.75 1003.94 1004.29 1004.78 1005.33 1005.89 1006.39 1006.78 1007.05 1007.21
1008.90 1008.80 1008.72 1008.62 1008.47 1008.23 1007.92 1007.57 1007.21 1006.89 1006.67 1006.57 1006.57 1006.66 1006.80 1006.93 1007.01 1007.02 1006.95 1006.80 1006.62 1006.43 1006.26 1006.10 1005.97 1005.83 1005.65 1005.43 1005.15 1004.83 1004.49 1004.20 1003.99 1003.91 1003.99 1004.22 1004.57 1004.98 1005.41 1005.79 1006.08 1006.27 1006.35
1009.55 1009.40 1009.28 1009.15 1008.98 1008.75 1008.46 1008.14 1007.82 1007.54 1007.33 1007.22 1007.20 1007.24 1007.31 1007.37 1007.38 1007.31 1007.19 1007.01 1006.81 1006.62 1006.46 1006.34 1006.24 1006.14 1006.01 1005.82 1005.56 1005.24 1004.90 1004.57 1004.31 1004.16 1004.15 1004.26 1004.49 1004.78 1005.08 1005.35 1005.53 1005.62 1005.63
1010.20 1010.00 1009.84 1009.67 1009.48 1009.25 1008.99 1008.70 1008.41 1008.16 1007.97 1007.86 1007.81 1007.80 1007.81 1007.79 1007.73 1007.61 1007.44 1007.23 1007.03 1006.85 1006.71 1006.62 1006.56 1006.49 1006.39 1006.23 1005.99 1005.68 1005.33 1004.98 1004.68 1004.48 1004.39 1004.42 1004.54 1004.73 1004.93 1005.08 1005.17 1005.17 1005.10
1010.84 1010.61 1010.41 1010.21 1010.01 1009.78 1009.53 1009.27 1009.02 1008.80 1008.63 1008.51 1008.43 1008.38 1008.33 1008.25 1008.13 1007.96 1007.76 1007.54 1007.33 1007.17 1007.06 1006.99 1006.95 1006.91 1006.83 1006.68 1006.45 1006.15 1005.79 1005.43 1005.11 1004.87 1004.73 1004.69 1004.75 1004.85 1004.95 1005.02 1005.01 1004.92 1004.77
1011.47 1011.22 1011.00 1010.79 1010.58 1010.36 1010.13 1009.89 1009.67 1009.48 1009.32 1009.19 1009.10 1009.01 1008.91 1008.79 1008.62 1008.41 1008.18 1007.96 1007.76 1007.60 1007.51 1007.46 1007.44 1007.40 1007.33 1007.18 1006.95 1006.64 1006.29 1005.92 1005.59 1005.33 1005.17 1005.10 1005.09 1005.13 1005.16 1005.15 1005.06 1004.89 1004.66
1012.09 1011.85 1011.63 1011.41 1011.20 1010.99 1010.78 1010.57 1010.37 1010.20 1010.05 1009.93 1009.81 1009.70 1009.57 1009.40 1009.20 1008.96 1008.72 1008.49 1008.29 1008.15 1008.06 1008.01 1007.99 1007.95 1007.87 1007.72 1007.48 1007.18 1006.83 1006.47 1006.14 1005.88 1005.71 1005.61 1005.58 1005.56 1005.54 1005.45 1005.29 1005.05 1004.75
1012.71 1012.48 1012.27 1012.06 1011.85 1011.65 1011.46 1011.27 1011.09 1010.93 1010.80 1010.67 1010.55 1010.41 1010.25 1010.05 1009.82 1009.57 1009.31 1009.08 1008.88 1008.73 1008.64 1008.59 1008.56 1008.51 1008.42 1008.26 1008.02 1007.72 1007.39 1007.04 1006.74 1006.49 1006.31 1006.21 1006.15 1006.10 1006.03 1005.89 1005.67 1005.37 1005.01
1013.30 1013.10 1012.90 1012.70 1012.51 1012.32 1012.13 1011.96 1011.79 1011.64 1011.51 1011.38 1011.24 1011.09 1010.90 1010.68 1010.43 1010.16 1009.89 1009.64 1009.43 1009.28 1009.18 1009.11 1009.07 1009.00 1008.90 1008.74 1008.51 1008.23 1007.92 1007.60 1007.32 1007.10 1006.93 1006.83 1006.76 1006.69 1006.58 1006.40 1006.14 1005.80 1005.39
1013.86 1013.68 1013.49 1013.31 1013.13 1012.94 1012.76 1012.59 1012.43 1012.28 1012.13 1011.99 1011.84 1011.66 1011.45 1011.21 1010.93 1010.64 1010.35 1010.09 1009.86 1009.69 1009.57 1009.49 1009.43 1009.35 1009.25 1009.09 1008.88 1008.63 1008.35 1008.08 1007.84 1007.64 1007.50 1007.41 1007.34 1007.26 1007.14 1006.94 1006.66 1006.29 1005.86
1014.37 1014.21 1014.04 1013.87 1013.69 1013.50 1013.32 1013.13 1012.96 1012.79 1012.63 1012.47 1012.29 1012.09 1011.85 1011.58 1011.28 1010.96 1010.65 1010.36 1010.11 1009.92 1009.77 1009.67 1009.59 1009.51 1009.41 1009.27 1009.09 1008.88 1008.65 1008.42 1008.22 1008.07 1007.96 1007.88 1007.82 1007.75 1007.63 1007.44 1007.16 1006.80 1006.38
1014.84 1014.69 1014.53 1014.36 1014.18 1013.98 1013.78 1013.58 1013.38 1013.19 1013.00 1012.80 1012.59 1012.35 1012.08 1011.78 1011.45 1011.10 1010.76 1010.44 1010.17 1009.94 1009.77 1009.65 1009.56 1009.47 1009.38 1009.26 1009.12 1008.95 1008.76 1008.59 1008.44 1008.32 1008.25 1008.20 1008.16 1008.11 1008.01 1007.85 1007.61 1007.28 1006.90
1015.27 1015.13 1014.98 1014.81 1014.61 1014.40 1014.17 1013.94 1013.70 1013.47 1013.24 1013.00 1012.76 1012.49 1012.18 1011.85 1011.49 1011.11 1010.74 1010.39 1010.08 1009.83 1009.64 1009.49 1009.39 1009.30 1009.22 1009.12 1009.00 1008.87 1008.73 1008.59 1008.48 1008.40 1008.35 1008.33 1008.32 1008.31 1008.25 1008.14 1007.95 1007.69 1007.37
1015.66 1015.53 1015.38 1015.21 1015.00 1014.76 1014.50 1014.23 1013.96 1013.68 1013.41 1013.14 1012.85 1012.54 1012.21 1011.85 1011.46 1011.06 1010.67 1010.30 1009.97 1009.69 1009.47 1009.31 1009.19 1009.10 1009.01 1008.92 1008.82 1008.70 1008.58 1008.47 1008.38 1008.32 1008.29 1008.29 1008.31 1008.33 1008.33 1008.28 1008.17 1007.99 1007.75
1016.02 1015.90 1015.76 1015.58 1015.35 1015.09 1014.80 1014.50 1014.18 1013.87 1013.56 1013.25 1012.94 1012.61 1012.25 1011.88 1011.48 1011.06 1010.66 1010.28 1009.93 1009.64 1009.40 1009.22 1009.09 1008.98 1008.88 1008.78 1008.67 1008.55 1008.42 1008.30 1008.20 1008.14 1008.11 1008.12 1008.16 1008.22 1008.26 1008.28 1008.25 1008.16 1008.01
1016.35 1016.24 1016.10 1015.91 1015.68 1015.40 1015.09 1014.75 1014.41 1014.07 1013.73 1013.40 1013.07 1012.73 1012.37 1011.99 1011.60 1011.19 1010.79 1010.41 1010.06 1009.77 1009.52 1009.33 1009.17 1009.04 1008.92 1008.79 1008.65 1008.49 1008.33 1008.17 1008.04 1007.94 1007.89 1007.89 1007.93 1008.00 1008.09 1008.16 1008.20 1008.19 1008.12
Thickness
5753 5753 5752 5752 5751 5752 5752 5752 5752 5752 5752 5752 5752 5752 5752 5752 5751 5751 5751 5751 5751 5751 5751 5750 5749 5749 5748 5748 5747 5747 5745 5744 5742 5741 5739 5738 5736 5735 5734 5733 5731 5729 5728
5752 5751 5750 5750 5750 5750 5750 5750 5750 5750 5750 5750 5750 5751 5751 5751 5750 5750 5750 5750 5750 5750 5750 5749 5749 5749 5748 5747 5747 5746 5745 5744 5742 5740 5739 5737 5736 5735 5733 5732 5731 5729 5727
5750 5749 5749 5748 5748 5748 5748 5748 5747 5747 5748 5748 5748 5748 5748 5749 5749 5749 5748 5748 5748 5748 5748 5748 5748 5748 5747 5746 5746 5745 5744 5743 5741 5740 5738 5737 5735 5734 5733 5732 5730 5728 5727
5749 5748 5747 5747 5747 5746 5746 5745 5744 5744 5744 5744 5744 5745 5746 5746 5747 5747 5746 5746 5746 5746 5746 5746 5746 5746 5746 5745 5745 5744 5743 5742 5740 5738 5737 5736 5735 5734 5732 5731 5729 5728 5726
5747 5746 5745 5745 5744 5744 5743 5743 5741 5741 5740 5740 5740 5741 5742 5743 5744 5744 5744 5743 5743 5744 5744 5744 5744 5744 5744 5744 5744 5743 5742 5741 5740 5738 5736 5735 5734 5733 5731 5730 5728 5727 5725
5746 5745 5743 5742 5742 5741 5739 5738 5737 5737 5737 5736 5737 5737 5738 5739 5740 5740 5741 5741 5741 5741 5741 5741 5741 5741 5742 5742 5741 5741 5740 5740 5738 5737 5735 5734 5732 5731 5729 5728 5727 5725 5723
5743 5742 5741 5740 5739 5738 5736 5735 5733 5733 5732 5733 5731 5731 5733 5735 5736 5737 5737 5738 5738 5738 5738 5738 5738 5738 5739 5739 5739 5739 5738 5737 5736 5735 5733 5732 5730 5729 5727 5726 5724 5723 5721
5741 5740 5738 5737 5736 5735 5733 5732 5731 5729 5728 5729 5726 5724 5723 5725 5729 5733 5733 5734 5734 5735 5735 5735 5735 5735 5736 5736 5736 5736 5736 5736 5735 5733 5731 5730 5728 5727 5725 5723 5722 5720 5719
5739 5737 5736 5735 5734 5732 5730 5729 5728 5726 5724 5724 5724 5722 5717 5716 5719 5724 5726 5728 5729 5730 5731 5731 5732 5732 5732 5732 5733 5733 5733 5732 5731 5730 5729 5727 5725 5724 5722 5721 5719 5718 5716
5736 5735 5734 5733 5731 5729 5727 5726 5725 5724 5722 5720 5720 5720 5719 5719 5715 5714 5719 5722 5724 5725 5726 5727 5727 5727 5728 5728 5729 5729 5729 5729 5728 5727 5726 5724 5723 5721 5719 5717 5716 5715 5714
5733 5732 5731 5730 5728 5726 5724 5723 5722 5721 5720 5718 5717 5716 5715 5714 5714 5711 5710 5713 5716 5719 5720 5721 5721 5723 5723 5724 5725 5725 5725 5725 5724 5723 5722 5721 5719 5717 5716 5715 5713 5712 5711
5730 5729 5728 5726 5725 5723 5721 5720 5718 5717 5717 5716 5715 5714 5712 5711 5710 5709 5707 5707 5708 5712 5715 5716 5717 5718 5719 5719 5721 5721 5721 5721 5720 5719 5718 5717 5716 5714 5712 5711 5710 5708 5707
5726 5725 5725 5723 5721 5720 5718 5717 5715 5714 5713 5712 5711 5710 5710 5710 5710 5708 5706 5704 5703 5705 5708 5710 5712 5713 5714 5715 5716 5716 5716 5716 5715 5715 5714 5713 5712 5710 5708 5707 5706 5704 5703
5725 5724 5723 5720 5718 5717 5715 5714 5712 5711 5710 5709 5708 5707 5707 5707 5706 5706 5704 5702 5699 5699 5700 5703 5705 5707 5708 5709 5711 5711 5711 5711 5710 5710 5709 5708 5707 5705 5704 5703 5701 5700 5699
5723 5722 5720 5718 5715 5713 5712 5710 5709 5707 5706 5705 5704 5703 5703 5703 5703 5703 5702 5701 5698 5694 5693 5696 5698 5701 5702 5703 5704 5705 5705 5705 5704 5703 5703 5703 5701 5700 5699 5698 5697 5695 5693
5720 5719 5716 5714 5712 5710 5708 5706 5705 5703 5702 5700 5699 5699 5699 5699 5698 5698 5698 5698 5696 5694 5690 5691 5692 5694 5695 5697 5698 5698 5698 5698 5697 5697 5697 5696 5695 5694 5692 5691 5690 5689 5688
5717 5715 5713 5710 5708 5706 5704 5702 5701 5699 5698 5696 5695 5695 5694 5694 5693 5693 5693 5692 5691 5690 5686 5686 5686 5687 5688 5690 5690 5690 5690 5690 5690 5689 5690 5689 5688 5687 5685 5684 5683 5683 5681
5714 5712 5709 5707 5705 5702 5700 5698 5696 5694 5693 5691 5690 5690 5689 5689 5688 5687 5686 5686 5686 5685 5683 5680 5680 5680 5681 5682 5682 5682 5682 5682 5681 5682 5681 5681 5680 5680 5679 5677 5676 5676 5675
5711 5708 5705 5703 5700 5698 5696 5694 5692 5690 5688 5687 5686 5685 5684 5683 5682 5681 5681 5680 5680 5680 5678 5676 5674 5674 5674 5674 5674 5674 5674 5674 5674 5674 5674 5673 5672 5672 5671 5670 5670 5669 5668
5708 5705 5702 5699 5697 5695 5692 5690 5688 5686 5684 5682 5681 5680 5679 5678 5677 5676 5675 5674 5673 5672 5671 5670 5668 5667 5667 5667 5667 5666 5666 5666 5665 5666 5665 5665 5664 5664 5664 5663 5663 5662 5661
5705 5702 5698 5695 5693 5691 5689 5686 5684 5682 5679 5677 5676 5674 5674 5673 5673 5671 5671 5669 5668 5666 5664 5664 5662 5661 5660 5660 5659 5659 5658 5657 5657 5657 5657 5657 5656 5656 5655 5655 5655 5655 5654
5702 5698 5695 5692 5689 5688 5685 5683 5680 5678 5675 5672 5670 5668 5668 5667 5667 5666 5666 5664 5663 5662 5660 5658 5657 5656 5655 5655 5653 5652 5651 5650 5649 5648 5649 5648 5648 5648 5648 5648 5648 5648 5648
5698 5694 5691 5688 5686 5684 5682 5680 5677 5673 5670 5667 5664 5663 5663 5662 5660 5659 5658 5658 5657 5656 5655 5654 5653 5652 5651 5650 5649 5646 5645 5644 5643 5642 5641 5641 5641 5641 5641 5641 5642 5641 5641
5694 5691 5688 5685 5682 5680 5678 5675 5671 5668 5664 5662 5659 5657 5656 5654 5654 5652 5651 5650 5650 5649 5649 5649 5648 5647 5646 5645 5643 5641 5639 5636 5635 5634 5634 5634 5634 5634 5635 5635 5635 5635 5634
5690 5687 5684 5681 5678 5676 5673 5669 5666 5662 5658 5656 5654 5652 5650 5648 5647 5646 5645 5643 5643 5643 5642 5642 5641 5640 5639 5638 5637 5634 5631 5630 5629 5628 5627 5627 5627 5627 5628 5628 5628 5627 5627
5686 5683 5679 5677 5674 5671 5668 5664 5661 5656 5653 5651 5648 5647 5645 5643 5641 5639 5637 5637 5636 5635 5635 5635 5633 5633 5631 5630 5629 5628 5627 5624 5623 5622 5621 5620 5620 5620 5620 5621 5621 5620 5620